Weather History for KASJ - April, 2014

Change the Weather History Date:

Tuesday, April 29, 2014

  Actual Average (KEMV) Record (KEMV)
Temperature  
Mean Temperature 60 °F -  
Max Temperature 69 °F 73 °F 88 °F (1984)
Min Temperature 50 °F 45 °F 32 °F (1992)
Degree Days  
Heating Degree Days 6    
Growing Degree Days 10 (Base 50)    
Moisture  
Dew Point 57 °F    
Average Humidity 93    
Maximum Humidity 97    
Minimum Humidity 87    
Precipitation  
Precipitation 0.23 in - - ()
Sea Level Pressure  
Sea Level Pressure 30.02 in    
Wind  
Wind Speed 5 mph (ENE)    
Max Wind Speed 13 mph    
Max Gust Speed 21 mph    
Visibility 7 miles    
Events      
Averages and records for this station are not official NWS values.
T = Trace of Precipitation, MM = Missing Value Source: NWS Daily Summary

Daily Weather History Graph

Daily Weather History Graph

Search for Another Location

Airport or City:

Trip Planner

Search our weather history database for the weather conditions in past years. The results will help you decide how hot, cold, wet, or windy it might be!

Date:

Astronomy

Apr. 29, 2014 Rise Set
Actual Time 6:17 AM EDT 7:54 PM EDT
Civil Twilight 5:50 AM EDT 8:22 PM EDT
Nautical Twilight 5:17 AM EDT 8:55 PM EDT
Astronomical Twilight 4:42 AM EDT 9:30 PM EDT
Moon 6:34 AM EDT (4/29) 8:32 PM EDT (4/29)
Length of Visible Light 14h 31m
Length of Day
13h 36m
New Moon, 0% of the Moon is Illuminated
Apr 29
New Moon
May 6
First Quarter
May 14
Full
May 21
Last Quarter
May 28
New

Hourly Weather History & Observations

Time (EDT) Temp. Dew Point Humidity Pressure Visibility Wind Dir Wind Speed Gust Speed Precip Events Conditions
12:15 AM 52.5 °F 50.9 °F 94% 29.96 in 10.0 mi Calm Calm - N/A   Overcast
12:35 AM 52.7 °F 51.3 °F 95% 29.97 in 10.0 mi North 4.6 mph - N/A   Overcast
12:55 AM 52.9 °F 51.4 °F 95% 29.96 in 10.0 mi NNE 5.8 mph - N/A   Overcast
1:15 AM 53.1 °F 51.6 °F 95% 29.97 in 10.0 mi North 8.1 mph - N/A   Overcast
1:35 AM 53.1 °F 51.8 °F 95% 29.97 in 10.0 mi NNE 6.9 mph - N/A   Overcast
1:55 AM 52.9 °F 51.6 °F 95% 29.98 in 10.0 mi NNE 10.4 mph - N/A   Overcast
2:15 AM 52.7 °F 50.9 °F 94% 29.98 in 10.0 mi NE 5.8 mph - N/A   Overcast
2:35 AM 52.0 °F 50.4 °F 94% 29.98 in 7.0 mi NNE 8.1 mph - N/A   Overcast
2:55 AM 51.8 °F 50.2 °F 94% 29.98 in 4.0 mi NE 5.8 mph - N/A   Overcast
3:15 AM 51.6 °F 50.0 °F 94% 29.98 in 4.0 mi NNE 6.9 mph - N/A   Overcast
3:35 AM 51.3 °F 49.8 °F 95% 29.98 in 10.0 mi NE 6.9 mph - N/A   Overcast
3:55 AM 51.1 °F 49.5 °F 94% 29.98 in 10.0 mi NE 8.1 mph - N/A   Overcast
4:15 AM 51.1 °F 49.5 °F 94% 29.99 in 10.0 mi NNE 4.6 mph - N/A   Overcast
4:55 AM 50.9 °F 49.5 °F 95% 29.98 in 5.0 mi NNE 8.1 mph - 0.01 in   Overcast
5:15 AM 50.9 °F 49.5 °F 95% 29.99 in 5.0 mi NNE 4.6 mph - N/A   Overcast
5:35 AM 51.1 °F 49.6 °F 95% 29.99 in 2.5 mi NE 5.8 mph - N/A   Overcast
5:55 AM 51.1 °F 50.0 °F 96% 30.00 in 2.5 mi NNE 3.5 mph - N/A   Overcast
6:15 AM 51.3 °F 50.0 °F 95% 30.01 in 3.0 mi NE 4.6 mph - N/A   Overcast
6:35 AM 51.3 °F 50.0 °F 95% 30.01 in 4.0 mi NE 5.8 mph - N/A   Overcast
6:55 AM 51.3 °F 50.0 °F 95% 30.03 in 1.8 mi NE 3.5 mph - N/A   Overcast
7:15 AM 51.3 °F 50.0 °F 95% 30.04 in 1.5 mi NE 3.5 mph - N/A   Overcast
7:35 AM 51.4 °F 50.0 °F 95% 30.04 in 1.5 mi Calm Calm - N/A   Overcast
7:55 AM 51.8 °F 50.4 °F 95% 30.04 in 1.8 mi NE 4.6 mph - N/A   Overcast
8:15 AM 51.8 °F 50.4 °F 95% 30.04 in 1.5 mi NNE 4.6 mph - N/A   Overcast
8:35 AM 51.8 °F 50.5 °F 95% 30.05 in 1.2 mi NE 5.8 mph - N/A   Overcast
8:55 AM 52.3 °F 51.1 °F 95% 30.06 in 1.5 mi NNE 3.5 mph - N/A   Overcast
9:15 AM 52.7 °F 51.4 °F 95% 30.06 in 1.5 mi NE 5.8 mph - N/A   Overcast
9:35 AM 52.9 °F 51.8 °F 96% 30.06 in 1.2 mi NNE 3.5 mph - N/A   Overcast
9:55 AM 53.2 °F 52.2 °F 96% 30.06 in 1.0 mi NE 4.6 mph - N/A   Overcast
10:15 AM 53.6 °F 52.7 °F 97% 30.06 in 1.2 mi NE 4.6 mph - N/A   Overcast
10:35 AM 54.5 °F 53.2 °F 96% 30.06 in 1.2 mi Calm Calm - N/A   Overcast
10:55 AM 55.0 °F 53.8 °F 96% 30.06 in 1.2 mi Calm Calm - N/A   Overcast
11:15 AM 55.8 °F 54.7 °F 96% 30.06 in 1.2 mi NE 4.6 mph - N/A   Overcast
11:35 AM 56.8 °F 55.8 °F 96% 30.05 in 2.0 mi Calm Calm - N/A   Overcast
11:55 AM 57.6 °F 56.5 °F 96% 30.05 in 4.0 mi East 6.9 mph - N/A   Overcast
12:15 PM 58.3 °F 57.2 °F 96% 30.04 in 5.0 mi East 3.5 mph - N/A   Overcast
12:35 PM 59.5 °F 58.1 °F 95% 30.04 in 5.0 mi East 3.5 mph - N/A   Overcast
12:55 PM 60.4 °F 58.8 °F 94% 30.04 in 7.0 mi East 4.6 mph - N/A   Overcast
1:15 PM 62.2 °F 60.3 °F 93% 30.03 in 7.0 mi Calm Calm - N/A   Overcast
1:35 PM 63.5 °F 61.0 °F 91% 30.02 in 10.0 mi East 3.5 mph - N/A   Overcast
2:15 PM 65.7 °F 62.6 °F 90% 30.02 in 10.0 mi Calm Calm - N/A   Overcast
2:35 PM 66.2 °F 63.0 °F 89% 30.02 in 10.0 mi East 5.8 mph - N/A   Overcast
2:55 PM 66.7 °F 63.7 °F 90% 30.01 in 10.0 mi ENE 6.9 mph - N/A   Overcast
3:15 PM 67.1 °F 63.9 °F 89% 30.01 in 10.0 mi ENE 4.6 mph - N/A   Overcast
3:35 PM 67.5 °F 64.4 °F 90% 30.00 in 10.0 mi ENE 4.6 mph - N/A   Overcast
3:55 PM 68.9 °F 64.9 °F 87% 29.99 in 10.0 mi ENE 4.6 mph - N/A   Overcast
4:15 PM 69.4 °F 65.3 °F 87% 29.98 in 10.0 mi NE 8.1 mph - N/A   Overcast
4:35 PM 69.3 °F 65.5 °F 88% 29.98 in 10.0 mi ENE 4.6 mph - N/A   Overcast
4:55 PM 69.8 °F 66.0 °F 88% 29.98 in 10.0 mi ENE 6.9 mph - N/A   Overcast
5:15 PM 69.8 °F 66.2 °F 88% 29.99 in 10.0 mi ENE 5.8 mph - N/A   Overcast
5:35 PM 69.6 °F 66.2 °F 89% 29.98 in 10.0 mi East 5.8 mph - N/A   Mostly Cloudy
6:15 PM 69.4 °F 66.2 °F 89% 30.00 in 10.0 mi East 3.5 mph - N/A   Mostly Cloudy
6:35 PM 69.1 °F 66.2 °F 91% 30.02 in 7.0 mi ESE 3.5 mph - N/A   Overcast
6:55 PM 68.9 °F 66.2 °F 91% 30.03 in 7.0 mi Calm Calm - 0.02 in   Mostly Cloudy
7:15 PM 68.2 °F 66.2 °F 93% 30.03 in 3.0 mi ENE 3.5 mph - 0.09 in   Overcast
7:35 PM 68.4 °F 66.4 °F 93% 30.02 in 5.0 mi SE 12.7 mph 20.7 mph 0.13 in   Mostly Cloudy
7:55 PM 67.8 °F 64.4 °F 89% 30.02 in 10.0 mi SE 8.1 mph - 0.13 in   Scattered Clouds
8:15 PM 66.4 °F 63.1 °F 89% 30.04 in 10.0 mi SSE 6.9 mph - N/A   Clear
8:35 PM 65.7 °F 63.1 °F 92% 30.04 in 10.0 mi SE 4.6 mph - N/A   Clear
8:55 PM 65.7 °F 63.5 °F 93% 30.05 in 10.0 mi SSE 4.6 mph - N/A   Scattered Clouds
9:15 PM 66.0 °F 64.0 °F 93% 30.06 in 10.0 mi SE 3.5 mph - N/A   Mostly Cloudy
9:35 PM 66.6 °F 64.8 °F 94% 30.06 in 10.0 mi ESE 5.8 mph - N/A   Overcast
9:55 PM 67.8 °F 66.2 °F 95% 30.04 in 7.0 mi SE 5.8 mph - N/A   Mostly Cloudy
10:35 PM 68.0 °F 65.7 °F 92% 30.06 in 10.0 mi SSE 4.6 mph - 0.01 in   Clear
10:55 PM 68.4 °F 65.5 °F 90% 30.06 in 10.0 mi South 4.6 mph - 0.01 in   Scattered Clouds
11:15 PM 68.0 °F 64.8 °F 89% 30.08 in 10.0 mi SSW 4.6 mph - 0.01 in   Mostly Cloudy
11:35 PM 67.1 °F 65.1 °F 93% 30.08 in 5.0 mi SSE 3.5 mph - 0.04 in   Mostly Cloudy
11:55 PM 68.0 °F 65.5 °F 92% 30.07 in 10.0 mi SE 6.9 mph - 0.06 in   Scattered Clouds